KC5JIM Weather Reports


Display with metric or nautical units.
time (UTC)temp
F
wind
direction
speed
MPH
gust
MPH
rain 1hr
in
rain 24hr
in
rain mn
in
humidity
%
barometer
mb
20260904161822 84 228 2.0 4.0 0.00 0.00 0.00 53 1011.3
20260904161318 82 183 2.0 3.0 0.00 0.00 0.00 56 1011.3
20260904160814 81 272 2.0 4.0 0.00 0.00 0.00 58 1011.7
20260904160803 82 155 5.0 6.0 0.00 0.00 0.00 59 1011.5
20260904155806 82 133 3.0 5.0 0.00 0.00 0.00 59 1011.5
20260904155302 81 108 6.0 6.0 0.00 0.00 0.00 60 1011.4
20260904154757 81 129 0.0 5.0 0.00 0.00 0.00 60 1011.3
20260904154253 82 112 6.0 9.0 0.00 0.00 0.00 59 1011.5
20260904154013 81 100 6.0 8.0 0.00 0.00 0.00 60 1011.4
20260904153245 81 85 6.0 10.0 0.00 0.00 0.00 60 1011.5
20260904152741 80 151 3.0 9.0 0.00 0.00 0.00 61 1011.4
20260904152237 81 138 4.0 8.0 0.00 0.00 0.00 61 1011.4
20260904151733 80 141 4.0 5.0 0.00 0.00 0.00 62 1011.4
20260904151453 81 135 2.0 8.0 0.00 0.00 0.00 62 1011.3
20260904150725 81 141 7.0 7.0 0.00 0.00 0.00 63 1011.2
20260904150221 81 100 4.0 9.0 0.00 0.00 0.00 63 1011.3
20260904145717 81 109 2.0 9.0 0.00 0.00 0.00 62 1011.1
20260904145213 81 111 6.0 8.0 0.00 0.00 0.00 63 1011.2
20260904144709 81 200 3.0 5.0 0.00 0.00 0.00 64 1011.4
20260904144205 81 178 4.0 5.0 0.00 0.00 0.00 63 1011.3
20260904143923 81 169 2.0 4.0 0.00 0.00 0.00 64 1011.3
20260904143157 81 168 0.0 3.0 0.00 0.00 0.00 63 1011.3
20260904142653 80 228 1.0 3.0 0.00 0.00 0.00 64 1011.2
20260904142149 79 164 0.0 3.0 0.00 0.00 0.00 67 1011.1
20260904141645 79 233 2.0 4.0 0.00 0.00 0.00 67 1011.3
20260904141141 79 258 1.0 4.0 0.00 0.00 0.00 68 1011.0
20260904140637 79 251 2.0 4.0 0.00 0.00 0.00 67 1010.8
20260904140133 78 284 2.0 2.0 0.00 0.00 0.00 69 1011.1
20260904135629 78 241 0.0 3.0 0.00 0.00 0.00 70 1011.2
20260904135125 78 316 2.0 4.0 0.00 0.00 0.00 68 1011.1
20260904134621 77 91 2.0 2.0 0.00 0.00 0.00 70 1011.1
20260904134339 77 88 4.0 5.0 0.00 0.00 0.00 70 1010.8
20260904133613 77 77 2.0 5.0 0.00 0.00 0.00 70 1010.9
20260904133109 77 95 0.0 3.0 0.00 0.00 0.00 70 1010.7
20260904132605 76 69 2.0 4.0 0.00 0.00 0.00 71 1010.6
20260904132101 76 130 0.0 4.0 0.00 0.00 0.00 71 1010.6
20260904131557 76 342 1.0 7.0 0.00 0.00 0.00 71 1010.6
20260904131053 76 316 0.0 3.0 0.00 0.00 0.00 72 1010.4
20260904130549 76 125 3.0 7.0 0.00 0.00 0.00 72 1010.2
20260904130046 76 76 1.0 5.0 0.00 0.00 0.00 72 1010.1
20260904125542 76 63 2.0 6.0 0.00 0.00 0.00 72 1010.1
20260904125038 76 119 0.0 4.0 0.00 0.00 0.00 72 1009.8
20260904124533 77 26 2.0 4.0 0.00 0.00 0.00 72 1009.8
20260904124030 77 68 0.0 5.0 0.00 0.00 0.00 72 1009.7
20260904123525 77 108 2.0 3.0 0.00 0.00 0.00 72 1009.4
20260904123022 77 332 1.0 3.0 0.00 0.00 0.00 73 1009.3
20260904122517 76 79 2.0 3.0 0.00 0.00 0.00 73 1009.2
20260904122014 76 194 1.0 4.0 0.00 0.00 0.00 73 1009.3
20260904121733 76 86 3.0 3.0 0.00 0.00 0.00 73 1009.3
20260904121005 76 6 2.0 4.0 0.00 0.00 0.00 73 1009.3
20260904120501 76 161 1.0 2.0 0.00 0.00 0.00 73 1009.2
20260904115957 77 94 2.0 3.0 0.00 0.00 0.00 73 1009.3
20260904115453 76 91 3.0 4.0 0.00 0.00 0.00 73 1009.2
20260904114949 76 24 2.0 3.0 0.00 0.00 0.00 73 1009.1
20260904114445 76 136 1.0 3.0 0.00 0.00 0.00 72 1009.3
20260904113941 77 7 0.0 2.0 0.00 0.00 0.00 72 1009.2
20260904113437 77 306 0.0 3.0 0.00 0.00 0.00 72 1009.2
20260904112933 77 83 2.0 5.0 0.00 0.00 0.00 72 1008.8
20260904112430 76 120 2.0 3.0 0.00 0.00 0.00 73 1009.1
20260904111925 76 89 2.0 3.0 0.00 0.00 0.00 74 1009.1
20260904111421 76 343 0.0 1.0 0.00 0.00 0.00 75 1009.4
20260904110917 76 215 0.0 2.0 0.00 0.00 0.00 75 1009.0
20260904110413 75 34 2.0 2.0 0.00 0.00 0.00 75 1009.1
20260904110131 75 19 2.0 2.0 0.00 0.00 0.00 77 1009.2
20260904105629 74 255 0.0 0.0 0.00 0.00 0.00 78 1009.2
20260904104901 74 255 0.0 0.0 0.00 0.00 0.00 78 1009.3
20260904104357 74 255 0.0 0.0 0.00 0.00 0.00 78 1009.4
20260904103853 74 255 0.0 0.0 0.00 0.00 0.00 78 1009.3
20260904103349 74 255 0.0 1.0 0.00 0.00 0.00 78 1009.4
20260904102845 74 275 0.0 2.0 0.00 0.00 0.00 79 1009.4
20260904102602 74 243 0.0 2.0 0.00 0.00 0.00 78 1009.1
20260904101837 74 256 0.0 2.0 0.00 0.00 0.00 78 1009.3
20260904101333 74 296 2.0 4.0 0.00 0.00 0.00 78 1009.4
20260904100829 74 281 2.0 2.0 0.00 0.00 0.00 78 1009.4
20260904100325 74 269 0.0 2.0 0.00 0.00 0.00 78 1009.4
20260904095821 74 313 2.0 4.0 0.00 0.00 0.00 77 1009.3
20260904095317 75 253 0.0 1.0 0.00 0.00 0.00 76 1008.9
20260904095037 75 339 2.0 2.0 0.00 0.00 0.00 76 1008.9
20260904094309 75 290 0.0 1.0 0.00 0.00 0.00 76 1009.2
20260904093805 75 322 0.0 3.0 0.00 0.00 0.00 76 1009.3
20260904093301 76 315 0.0 1.0 0.00 0.00 0.00 75 1009.2
20260904092757 76 61 1.0 3.0 0.00 0.00 0.00 74 1009.1
20260904092253 75 253 1.0 1.0 0.00 0.00 0.00 75 1009.0
20260904091749 75 315 0.0 1.0 0.00 0.00 0.00 75 1009.0
20260904091245 76 265 1.0 1.0 0.00 0.00 0.00 74 1009.2
20260904090741 76 338 0.0 2.0 0.00 0.00 0.00 73 1009.2
20260904090238 76 277 3.0 4.0 0.00 0.00 0.00 73 1009.1
20260904085734 76 297 0.0 2.0 0.00 0.00 0.00 72 1009.1
20260904085230 76 275 1.0 3.0 0.00 0.00 0.00 72 1009.1
20260904084726 76 356 2.0 3.0 0.00 0.00 0.00 72 1009.2
20260904084222 78 287 3.0 4.0 0.00 0.00 0.00 69 1008.8
20260904083718 78 93 2.0 4.0 0.00 0.00 0.00 67 1008.8
20260904083435 78 93 3.0 4.0 0.00 0.00 0.00 68 1009.1
20260904082710 78 137 0.0 2.0 0.00 0.00 0.00 68 1009.0
20260904082206 79 107 2.0 3.0 0.00 0.00 0.00 67 1009.1
20260904081702 79 116 2.0 4.0 0.00 0.00 0.00 67 1008.8
20260904081158 79 153 1.0 3.0 0.00 0.00 0.00 67 1009.1
20260904080914 79 87 2.0 4.0 0.00 0.00 0.00 67 1009.0
20260904080151 79 85 3.0 3.0 0.00 0.00 0.00 67 1009.1
20260904075646 78 97 4.0 4.0 0.00 0.00 0.00 67 1009.3
20260904075142 78 92 2.0 3.0 0.00 0.00 0.00 68 1009.2
20260904074638 78 89 0.0 1.0 0.00 0.00 0.00 69 1009.3
20260904074133 77 343 0.0 1.0 0.00 0.00 0.00 70 1009.2
20260904073629 78 291 0.0 2.0 0.00 0.00 0.00 69 1009.5
20260904073618 78 322 0.0 1.0 0.00 0.00 0.00 68 1009.3
20260904072621 78 124 0.0 1.0 0.00 0.00 0.00 67 1009.1
20260904072117 78 183 1.0 2.0 0.00 0.00 0.00 67 1009.1
20260904071613 78 183 2.0 2.0 0.00 0.00 0.00 67 1009.4
20260904071109 78 157 0.0 2.0 0.00 0.00 0.00 68 1009.3
20260904070605 78 164 0.0 2.0 0.00 0.00 0.00 68 1009.5
20260904070101 78 144 0.0 1.0 0.00 0.00 0.00 67 1009.2
20260904065557 78 283 0.0 0.0 0.00 0.00 0.00 68 1009.6
20260904065053 78 283 0.0 0.0 0.00 0.00 0.00 67 1009.6
20260904064549 78 242 0.0 1.0 0.00 0.00 0.00 67 1009.5
20260904064045 78 135 0.0 0.0 0.00 0.00 0.00 67 1009.6
20260904063541 79 131 0.0 1.0 0.00 0.00 0.00 66 1009.5
20260904063037 79 284 0.0 2.0 0.00 0.00 0.00 66 1009.4
20260904062533 79 287 1.0 2.0 0.00 0.00 0.00 65 1009.6
20260904062029 79 333 1.0 2.0 0.00 0.00 0.00 66 1009.3
20260904061525 79 345 1.0 3.0 0.00 0.00 0.00 66 1009.5
20260904061245 79 304 0.0 2.0 0.00 0.00 0.00 66 1009.5
20260904060738 79 309 1.0 2.0 0.00 0.00 0.00 66 1009.2
20260904060505 79 299 2.0 5.0 0.00 0.00 0.00 65 1009.4
20260904055509 79 301 1.0 4.0 0.00 0.00 0.00 65 1009.4
20260904055005 79 299 1.0 3.0 0.00 0.00 0.00 65 1009.4
20260904054725 79 276 1.0 2.0 0.00 0.00 0.00 65 1009.3
20260904053958 79 269 0.0 2.0 0.00 0.00 0.00 65 1009.3
20260904053453 79 249 0.0 2.0 0.00 0.00 0.00 64 1009.1
20260904052949 80 305 1.0 2.0 0.00 0.00 0.00 64 1009.2
20260904052445 80 282 1.0 2.0 0.00 0.00 0.00 63 1009.4
20260904051941 81 246 0.0 2.0 0.00 0.00 0.00 62 1009.0
20260904051437 80 224 0.0 1.0 0.00 0.00 0.00 62 1009.2
20260904050933 81 293 0.0 1.0 0.00 0.00 0.00 62 1009.3
20260904050430 81 269 0.0 2.0 0.00 0.00 0.00 62 1009.4
20260904045926 81 62 1.0 2.0 0.00 0.00 0.00 62 1009.5
20260904045421 81 276 2.0 3.0 0.00 0.00 0.00 61 1009.7
20260904044917 81 22 0.0 4.0 0.00 0.00 0.00 61 1009.9
20260904044634 81 3 2.0 5.0 0.00 0.00 0.00 61 1009.4
20260904043910 81 15 0.0 1.0 0.00 0.00 0.00 61 1009.5
20260904043630 81 245 0.0 4.0 0.00 0.00 0.00 61 1009.7
20260904042901 81 0 2.0 5.0 0.00 0.00 0.00 61 1009.6
20260904042358 81 0 3.0 4.0 0.00 0.00 0.00 61 1009.9
20260904041854 81 281 2.0 6.0 0.00 0.00 0.00 61 1009.9
20260904041350 81 303 1.0 8.0 0.00 0.00 0.00 61 1009.7
20260904040846 81 302 3.0 4.0 0.00 0.00 0.00 61 1009.8
20260904040602 81 297 3.0 6.0 0.00 0.00 0.00 61 1009.6
20260904035838 81 295 4.0 5.0 0.00 0.00 0.00 60 1009.5
20260904035334 82 283 5.0 11.0 0.00 0.00 0.00 60 1009.6
20260904034829 82 326 6.0 8.0 0.00 0.00 0.00 59 1009.5
20260904034325 82 317 2.0 10.0 0.00 0.00 0.00 59 1009.6
20260904033821 82 307 5.0 8.0 0.00 0.00 0.00 59 1009.6
20260904033317 82 317 3.0 11.0 0.00 0.00 0.00 59 1009.4
20260904032813 83 304 5.0 14.0 0.00 0.00 0.00 58 1009.3
20260904032309 83 353 7.0 8.0 0.00 0.00 0.00 57 1009.2
20260904031805 83 333 6.0 11.0 0.00 0.00 0.00 57 1009.3
20260904031521 83 337 4.0 9.0 0.00 0.00 0.00 56 1008.9
20260904030757 83 314 0.0 2.0 0.00 0.00 0.00 56 1008.9
20260904030746 83 225 2.0 3.0 0.00 0.00 0.00 55 1008.8
20260904025750 83 269 0.0 4.0 0.00 0.00 0.00 56 1008.9
20260904025246 83 275 2.0 3.0 0.00 0.00 0.00 56 1008.8
20260904024742 83 233 1.0 4.0 0.00 0.00 0.00 56 1008.3
20260904024238 83 252 1.0 3.0 0.00 0.00 0.00 56 1008.1
20260904023734 83 295 2.0 2.0 0.00 0.00 0.00 56 1008.1
20260904023454 83 208 2.0 3.0 0.00 0.00 0.00 55 1008.0
20260904022726 84 243 2.0 3.0 0.00 0.00 0.00 54 1007.9
20260904022222 84 75 2.0 6.0 0.00 0.00 0.00 54 1007.8
20260904021718 84 73 0.0 8.0 0.00 0.00 0.00 54 1007.7
20260904021214 84 37 2.0 6.0 0.00 0.00 0.00 55 1007.5
20260904020710 84 34 2.0 5.0 0.00 0.00 0.00 55 1007.7
20260904020655 84 35 6.0 9.0 0.00 0.00 0.00 55 1007.6
20260904015702 84 74 3.0 8.0 0.00 0.00 0.00 55 1007.6
20260904015158 84 61 4.0 14.0 0.00 0.00 0.00 55 1007.5
20260904014654 84 84 6.0 14.0 0.00 0.00 0.00 55 1007.2
20260904014150 85 23 6.0 8.0 0.00 0.00 0.00 54 1007.1
20260904013646 85 336 2.0 10.0 0.00 0.00 0.00 54 1007.1
20260904013142 85 56 6.0 12.0 0.00 0.00 0.00 54 1007.1
20260904012638 85 63 8.0 21.0 0.00 0.00 0.00 54 1007.0
20260904012134 85 52 7.0 15.0 0.00 0.00 0.00 55 1006.9
20260904011630 85 33 8.0 12.0 0.00 0.00 0.00 55 1006.9
20260904011126 85 37 8.0 12.0 0.00 0.00 0.00 54 1006.6
20260904010622 85 80 9.0 17.0 0.00 0.00 0.00 54 1006.6
20260904010118 86 77 6.0 16.0 0.00 0.00 0.00 52 1006.5
20260904005614 87 85 7.0 14.0 0.00 0.00 0.00 50 1006.3
20260904005331 87 55 8.0 14.0 0.00 0.00 0.00 50 1006.4
20260904004606 86 62 6.0 17.0 0.00 0.00 0.00 51 1006.4
20260904004322 87 66 4.0 17.0 0.00 0.00 0.00 52 1006.5
20260904003558 88 84 11.0 11.0 0.00 0.00 0.00 48 1006.0
20260904003054 88 64 7.0 14.0 0.00 0.00 0.00 47 1006.2
20260904002550 89 51 3.0 13.0 0.00 0.00 0.00 46 1005.9
20260904002046 89 104 6.0 15.0 0.00 0.00 0.00 45 1005.8
20260904001542 89 56 12.0 12.0 0.00 0.00 0.00 46 1005.7
20260904001259 88 86 3.0 11.0 0.00 0.00 0.00 48 1006.0
20260904000534 88 99 4.0 14.0 0.00 0.00 0.00 48 1005.8
20260904000030 88 105 8.0 13.0 0.00 0.00 0.00 49 1006.3
20260903235526 88 69 11.0 19.0 0.00 0.00 0.00 50 1006.2
20260903235022 88 101 8.0 15.0 0.00 0.00 0.00 49 1006.0
20260903234517 88 102 7.0 15.0 0.00 0.00 0.00 49 1006.2
20260903234013 90 103 14.0 16.0 0.00 0.00 0.00 47 1005.9
20260903233509 89 136 4.0 11.0 0.00 0.00 0.00 43 1005.9
20260903233005 89 105 3.0 14.0 0.00 0.00 0.00 43 1005.8
20260903232501 89 105 5.0 11.0 0.00 0.00 0.00 43 1005.7
20260903232218 89 77 5.0 8.0 0.00 0.00 0.00 43 1005.6
20260903231716 90 138 6.0 8.0 0.00 0.00 0.00 43 1005.7
20260903230949 89 101 2.0 7.0 0.00 0.00 0.00 43 1005.8
20260903230445 90 89 2.0 12.0 0.00 0.00 0.00 43 1005.8
20260903225941 90 98 5.0 9.0 0.00 0.00 0.00 43 1005.7
20260903225437 90 112 6.0 12.0 0.00 0.00 0.00 43 1005.7
20260903224933 89 109 2.0 6.0 0.00 0.00 0.00 43 1005.7
20260903224429 89 148 4.0 6.0 0.00 0.00 0.00 43 1005.6
20260903223925 90 167 3.0 7.0 0.00 0.00 0.00 42 1005.5
20260903223421 90 131 6.0 11.0 0.00 0.00 0.00 42 1005.5
20260903222917 90 141 5.0 12.0 0.00 0.00 0.00 41 1005.5
20260903222413 89 93 4.0 8.0 0.00 0.00 0.00 41 1005.5
20260903222133 89 97 5.0 9.0 0.00 0.00 0.00 42 1005.6
20260903221405 89 142 6.0 9.0 0.00 0.00 0.00 42 1005.9
20260903220901 90 113 5.0 7.0 0.00 0.00 0.00 42 1005.9
20260903220357 89 166 3.0 7.0 0.00 0.00 0.00 42 1006.3
20260903215853 90 71 6.0 11.0 0.00 0.00 0.00 42 1005.8
20260903215349 90 88 6.0 8.0 0.00 0.00 0.00 42 1006.1
20260903214341 90 139 4.0 11.0 0.00 0.00 0.00 41 1006.1
20260903213837 89 186 5.0 8.0 0.00 0.00 0.00 42 1006.3
20260903213554 88 182 2.0 8.0 0.00 0.00 0.00 43 1006.5
20260903212829 90 332 0.0 8.0 0.00 0.00 0.00 41 1006.2
20260903212325 88 44 2.0 6.0 0.00 0.00 0.00 42 1006.5
20260903211821 89 34 6.0 9.0 0.00 0.00 0.00 42 1006.7
20260903211317 89 51 3.0 11.0 0.00 0.00 0.00 41 1006.7
20260903210813 89 144 4.0 9.0 0.00 0.00 0.00 41 1006.6
20260903210309 89 183 4.0 6.0 0.00 0.00 0.00 41 1006.6
20260903205805 89 116 0.0 11.0 0.00 0.00 0.00 42 1006.9
20260903205301 88 355 1.0 5.0 0.00 0.00 0.00 44 1007.1
20260903204757 89 180 5.0 7.0 0.00 0.00 0.00 43 1006.9
20260903204517 89 92 5.0 10.0 0.00 0.00 0.00 43 1007.1
20260903203749 89 123 2.0 12.0 0.00 0.00 0.00 42 1007.1
20260903203508 88 196 3.0 7.0 0.00 0.00 0.00 44 1007.2
20260903203001 87 58 2.0 6.0 0.00 0.00 0.00 44 1007.4
20260903202237 87 45 2.0 7.0 0.00 0.00 0.00 43 1007.5
20260903201733 88 124 4.0 10.0 0.00 0.00 0.00 44 1007.8
20260903201229 88 72 5.0 9.0 0.00 0.00 0.00 45 1007.7
20260903200725 87 63 3.0 11.0 0.00 0.00 0.00 46 1008.2
20260903195717 88 0 0.0 7.0 0.00 0.00 0.00 45 1008.3
20260903195213 86 332 2.0 9.0 0.00 0.00 0.00 46 1008.5
20260903194709 86 241 0.0 3.0 0.00 0.00 0.00 46 1008.3
20260903194427 87 173 2.0 9.0 0.00 0.00 0.00 45 1008.5
20260903193702 87 155 4.0 9.0 0.00 0.00 0.00 46 1008.5
20260903193647 87 130 4.0 8.0 0.00 0.00 0.00 47 1008.8
20260903192915 86 192 4.0 8.0 0.00 0.00 0.00 47 1008.8
20260903192150 87 70 2.0 7.0 0.00 0.00 0.00 46 1008.5
20260903191645 86 41 1.0 7.0 0.00 0.00 0.00 47 1009.1
20260903191142 85 128 4.0 10.0 0.00 0.00 0.00 48 1009.3
20260903190638 86 109 3.0 9.0 0.00 0.00 0.00 47 1009.3
20260903190133 84 67 4.0 8.0 0.00 0.00 0.00 49 1009.7
20260903185629 84 25 4.0 5.0 0.00 0.00 0.00 48 1009.8
20260903185125 85 96 4.0 9.0 0.00 0.00 0.00 49 1009.6
20260903184843 85 154 6.0 9.0 0.00 0.00 0.00 49 1010.0
20260903184117 84 135 2.0 9.0 0.00 0.00 0.00 50 1009.9
20260903183613 85 103 10.0 10.0 0.00 0.00 0.00 49 1010.0
20260903183332 84 76 6.0 13.0 0.00 0.00 0.00 49 1010.3
20260903182605 85 103 6.0 13.0 0.00 0.00 0.00 49 1009.9
20260903182101 85 78 2.0 8.0 0.00 0.00 0.00 49 1010.3
20260903181821 83 158 2.0 5.0 0.00 0.00 0.00 50 1010.5
20260903181053 85 85 6.0 9.0 0.00 0.00 0.00 49 1010.6
20260903180549 85 111 4.0 9.0 0.00 0.00 0.00 50 1010.5
20260903180045 84 124 9.0 10.0 0.00 0.00 0.00 51 1010.4
20260903175802 84 68 3.0 6.0 0.00 0.00 0.00 51 1010.5
20260903175039 85 98 7.0 11.0 0.00 0.00 0.00 51 1010.5
20260903174758 84 68 3.0 7.0 0.00 0.00 0.00 51 1010.8
20260903174251 83 7 4.0 7.0 0.00 0.00 0.00 52 1011.0
20260903173526 83 60 2.0 6.0 0.00 0.00 0.00 52 1010.8
20260903173241 83 50 2.0 8.0 0.00 0.00 0.00 53 1011.1
20260903172518 83 104 4.0 8.0 0.00 0.00 0.00 52 1011.0
20260903172014 83 82 2.0 8.0 0.00 0.00 0.00 54 1011.0
20260903171730 83 114 4.0 7.0 0.00 0.00 0.00 54 1011.0
20260903171006 83 107 2.0 8.0 0.00 0.00 0.00 53 1011.1
20260903170502 82 126 1.0 3.0 0.00 0.00 0.00 55 1011.3
20260903165958 82 254 2.0 4.0 0.00 0.00 0.00 56 1011.2
20260903165454 82 65 3.0 3.0 0.00 0.00 0.00 54 1010.9
20260903164949 81 8 0.0 4.0 0.00 0.00 0.00 56 1011.4
20260903164446 82 97 2.0 6.0 0.00 0.00 0.00 56 1011.4
20260903163942 80 116 0.0 2.0 0.00 0.00 0.00 58 1011.6
20260903163438 81 119 2.0 6.0 0.00 0.00 0.00 58 1011.5
20260903162934 82 78 6.0 7.0 0.00 0.00 0.00 57 1011.4
20260903162654 80 145 2.0 3.0 0.00 0.00 0.00 57 1011.5